Theta_e
325 329 331 330 329 329 330 329 329 329 329 329 330 329 328 330 334 335 335 333 334 338 337 336 337 338 337 336 335 334 335 335 335 335 334 333 334 334 334 334 334 335 335 336 337 338 338 337 337 337 337 337 338 338 338 338 336 336 336 336 335 334 333 333 332 331 330 330 329 328 327 327 326 324 323 322 321 320 320 320 319 320 320 319 318 312
326 330 332 331 330 329 329 329 331 331 331 331 331 332 333 334 336 335 335 335 334 338 337 334 338 338 335 335 334 334 336 336 334 334 334 333 333 333 334 334 334 334 335 336 337 337 337 337 337 337 337 337 337 338 338 337 336 336 336 335 335 334 333 333 333 331 330 330 329 328 328 327 326 325 323 322 321 321 320 320 320 320 320 319 317 313
331 333 331 328 328 329 329 330 330 331 332 332 331 333 335 335 336 335 335 336 336 340 337 334 337 337 335 335 334 334 336 335 333 333 334 334 333 332 333 334 335 336 337 337 337 336 336 337 337 337 337 337 337 337 338 337 336 336 335 335 335 334 333 333 333 331 330 330 329 329 328 327 326 325 323 322 321 321 321 320 320 320 320 318 313 310
334 333 329 327 329 329 330 330 329 330 332 333 331 332 335 334 337 338 337 335 335 336 336 335 337 336 335 335 333 334 334 334 333 333 334 334 334 334 334 335 336 337 337 336 336 336 336 337 337 338 337 337 337 337 337 337 336 336 335 335 335 334 332 332 332 331 330 329 329 328 328 327 326 325 324 322 322 322 321 320 320 320 320 318 312 309
333 330 328 332 333 330 330 331 331 330 333 335 332 334 339 336 337 339 337 337 336 334 333 335 339 338 335 336 335 335 334 333 333 333 333 334 334 334 335 335 336 337 337 336 336 336 336 337 338 338 337 337 337 337 337 336 336 336 336 335 335 334 332 331 331 331 329 328 328 328 327 326 325 324 323 322 322 322 321 320 320 320 319 319 316 313
334 329 328 334 335 331 331 333 334 331 333 337 334 337 341 337 336 336 335 338 339 338 334 335 342 342 336 335 336 336 336 335 334 333 333 333 333 334 334 334 335 336 336 336 336 336 336 337 338 338 338 337 337 337 337 336 336 336 337 336 335 334 331 331 332 331 329 328 328 328 328 326 325 324 323 322 322 321 321 320 320 319 319 319 319 318
334 329 329 334 335 334 333 334 335 333 333 334 332 336 337 335 336 335 336 340 340 339 334 333 340 341 338 336 336 336 337 335 334 334 333 333 333 334 334 334 334 334 335 336 336 336 337 337 338 338 338 338 338 337 337 337 336 337 337 335 334 333 332 332 332 330 329 328 329 328 328 327 325 324 323 322 322 321 321 320 320 320 320 320 320 319
330 330 332 333 334 335 335 337 338 335 335 332 330 334 335 335 336 335 338 341 338 338 335 332 336 338 338 339 337 336 335 335 335 335 334 333 333 334 335 334 335 334 334 335 335 336 337 337 338 338 337 337 338 337 337 337 337 337 337 335 334 333 332 332 331 329 329 329 329 328 328 327 326 324 324 323 322 322 321 321 320 320 321 321 320 320
329 332 333 332 335 337 336 340 340 336 336 333 332 335 334 335 335 334 337 338 335 338 338 333 334 336 338 338 337 335 336 337 338 337 336 334 333 334 335 335 335 334 334 334 334 336 338 338 338 337 337 337 338 337 337 337 337 337 336 335 335 334 333 332 330 329 330 329 329 329 328 327 326 325 324 323 323 322 321 321 321 320 321 320 320 320
331 332 331 332 338 339 338 338 337 336 337 334 332 334 333 334 334 334 335 334 335 340 339 335 334 336 338 337 336 337 338 339 339 338 336 334 334 335 335 334 334 334 335 335 335 337 338 338 338 337 337 337 338 338 337 337 337 337 336 335 335 335 333 332 330 330 330 330 329 329 328 327 327 326 324 322 322 321 320 320 320 320 321 321 320 320
332 330 330 333 337 337 335 333 332 334 336 334 333 334 336 336 335 336 335 334 338 341 338 336 334 336 338 337 337 338 338 338 338 338 337 334 334 336 335 334 334 335 336 335 337 338 338 338 338 338 337 338 338 338 337 337 336 336 336 335 335 334 334 333 331 331 330 330 330 329 328 327 327 326 324 322 321 320 320 319 319 320 320 321 320 320
335 336 336 335 332 331 335 333 330 331 333 335 336 336 339 339 337 338 336 334 338 339 337 337 336 338 339 337 337 338 337 337 338 339 340 338 335 334 335 335 336 337 336 336 337 338 338 338 338 337 337 338 338 338 337 337 336 336 336 335 334 334 334 334 332 332 331 331 330 329 328 328 327 326 324 322 321 320 320 320 320 320 320 320 321 320
341 339 336 335 330 330 338 338 333 333 336 339 338 338 340 337 335 339 336 333 336 337 337 337 337 339 339 337 336 335 335 336 337 337 337 337 334 334 335 335 336 337 337 337 337 338 338 338 337 337 337 338 338 338 337 337 337 336 336 334 334 335 335 334 333 332 332 331 330 329 329 328 327 325 323 322 321 320 321 321 321 320 320 321 321 321
343 338 334 336 336 331 336 341 338 338 339 339 338 340 342 338 336 339 336 334 336 337 336 335 336 338 338 336 334 334 335 334 334 335 334 334 334 334 334 336 337 337 337 337 337 337 337 337 336 336 337 338 337 338 337 337 337 337 336 335 335 335 335 335 334 333 333 332 331 330 329 328 327 325 323 322 322 321 321 321 321 321 320 321 321 321
340 338 337 340 340 333 333 339 341 341 339 338 340 341 340 340 339 341 340 338 338 338 337 335 335 338 338 336 333 333 335 334 334 335 335 335 335 334 335 336 338 337 336 337 336 337 337 337 336 336 337 338 337 338 338 337 338 337 336 336 336 336 335 335 334 333 333 332 332 331 329 329 328 325 324 324 324 323 322 322 321 321 321 321 321 321
337 337 338 337 334 331 332 333 335 341 340 335 337 340 340 340 341 342 340 338 338 339 337 336 336 337 336 335 334 334 335 335 335 335 335 336 335 335 336 336 337 336 335 336 337 338 338 337 336 336 337 338 337 338 337 337 337 336 336 336 335 336 335 335 334 334 333 333 332 331 330 329 328 326 325 325 325 324 322 322 322 321 321 321 321 321
335 337 336 331 331 331 333 330 330 339 343 338 336 339 340 339 340 342 337 335 338 339 337 336 337 337 336 336 335 335 335 335 335 334 334 335 334 334 335 335 336 337 336 336 337 337 338 337 337 337 337 337 337 337 337 336 335 334 335 336 335 335 335 335 334 334 334 333 333 332 331 330 329 328 327 326 325 325 324 323 323 322 321 321 321 321
336 338 336 334 335 332 330 331 331 332 338 342 340 338 337 337 340 343 340 338 339 339 337 337 337 337 337 338 337 335 335 335 334 334 334 334 334 335 335 335 336 336 336 337 337 337 337 337 337 338 337 337 337 336 336 335 334 333 335 335 335 335 334 334 334 334 334 334 333 333 332 332 330 329 329 328 327 327 326 325 325 323 321 322 322 321
339 341 339 336 335 332 330 336 339 336 334 338 339 337 338 341 344 343 340 340 340 339 339 339 337 337 337 338 337 336 335 336 335 335 335 335 335 335 335 335 336 335 336 337 337 337 337 337 338 337 337 337 337 336 337 336 335 335 335 335 335 335 335 335 334 334 334 334 333 333 333 333 332 331 330 329 328 328 328 327 326 324 321 321 322 322
340 341 340 337 333 332 335 339 343 343 337 336 341 341 340 343 345 342 338 340 342 340 340 340 338 338 336 336 336 335 335 336 336 336 336 335 335 336 335 335 335 335 335 336 336 336 336 337 337 336 336 337 337 336 336 336 336 335 335 335 335 335 335 335 335 334 334 334 333 333 333 333 333 332 331 330 329 329 329 329 328 325 323 321 322 323
340 338 336 338 337 336 337 338 341 342 338 339 344 341 336 337 341 340 336 338 343 342 339 340 340 338 335 334 334 334 334 335 336 337 336 335 335 336 336 335 335 335 334 335 335 335 336 336 336 335 335 337 337 336 335 336 336 336 335 334 334 335 335 335 335 335 334 333 333 333 333 333 332 331 331 331 330 329 329 329 329 328 326 324 324 325
337 335 334 339 341 338 338 338 336 336 337 340 344 342 338 337 338 339 335 335 342 342 338 338 340 338 335 333 333 333 334 335 335 336 336 335 335 337 336 335 335 335 335 335 335 336 336 336 335 334 334 335 336 336 335 335 335 335 334 333 333 335 335 335 335 335 333 332 332 333 333 332 331 330 331 332 331 330 330 329 329 329 328 326 325 326
338 340 338 339 340 336 334 334 332 332 334 337 340 342 340 339 341 343 339 335 338 338 334 335 338 338 336 333 333 334 334 334 333 335 336 335 335 336 336 335 335 335 335 335 335 336 336 336 335 335 335 335 334 334 335 335 334 335 335 334 334 335 334 334 334 334 334 333 333 332 331 330 329 330 332 333 333 332 332 331 330 330 329 327 327 327
339 340 337 340 346 341 332 331 332 334 338 340 340 339 337 340 345 345 341 339 338 337 337 338 338 338 336 333 333 334 333 332 332 335 335 334 335 336 336 336 335 335 334 334 334 334 334 334 334 334 335 334 333 332 334 334 333 333 333 333 333 334 334 333 333 334 334 333 332 331 330 329 330 332 333 334 334 333 333 332 331 330 330 329 329 328
334 336 339 342 346 344 338 338 336 334 340 344 342 338 336 338 341 338 337 341 339 334 337 340 338 337 336 334 333 333 333 333 333 334 335 334 335 335 335 335 335 334 334 333 333 333 333 334 334 334 334 334 333 332 332 333 332 331 332 332 333 334 334 333 332 332 332 331 330 331 330 330 332 333 334 333 333 333 332 332 332 332 331 330 330 329
334 339 346 344 341 339 337 337 338 335 338 344 341 336 333 335 338 335 336 343 342 335 337 339 337 336 335 333 333 333 334 334 333 334 334 334 334 335 334 335 335 334 334 333 333 333 333 334 334 334 334 334 334 333 333 334 333 333 333 333 333 333 332 332 331 331 331 331 332 332 332 333 333 333 333 332 332 332 331 331 331 331 331 330 330 330
345 345 346 346 345 344 340 338 338 337 338 341 338 335 335 337 339 339 340 343 340 336 337 337 335 336 336 334 334 334 334 334 333 333 334 334 334 334 334 334 334 334 334 334 334 334 334 334 334 334 334 334 334 334 334 334 334 334 334 334 333 333 332 332 332 332 332 333 333 333 333 333 333 333 332 332 332 332 331 331 330 330 330 330 329 329
350 342 338 342 343 343 341 337 336 336 338 338 337 337 337 338 340 344 343 339 335 335 338 335 334 337 336 334 334 333 334 334 333 333 333 333 334 334 333 333 333 333 333 333 334 334 334 334 334 334 334 334 334 334 334 334 333 333 333 333 333 333 333 332 332 332 333 333 333 332 332 332 332 332 332 332 332 331 331 331 330 330 330 330 330 329
348 340 333 335 335 334 336 334 333 336 337 337 337 337 336 338 341 342 339 336 335 337 337 334 335 337 335 334 334 333 333 333 333 333 333 333 333 333 333 332 332 332 332 332 333 333 333 333 333 333 333 333 333 333 333 333 333 333 333 333 333 333 332 332 332 332 332 332 332 331 331 331 331 331 331 332 331 331 330 330 330 330 330 329 330 330
344 341 336 337 337 334 334 334 333 334 336 338 337 335 335 337 339 337 335 335 336 336 334 334 336 336 334 334 334 332 332 332 333 333 333 333 332 332 331 331 331 331 331 330 330 331 331 332 332 331 332 332 332 332 332 332 332 332 332 332 332 332 332 332 332 332 332 332 331 331 331 331 331 331 331 331 331 331 330 330 329 329 329 329 330 330
336 336 338 343 342 335 333 334 335 337 340 340 338 335 334 336 335 335 334 333 334 334 334 334 336 335 333 332 332 331 331 332 332 333 332 332 331 331 330 330 329 329 329 329 328 329 329 329 329 330 330 330 331 331 332 331 331 331 330 330 330 331 332 332 332 332 332 332 332 332 332 331 331 331 331 330 330 330 330 330 329 329 330 330 329 329
336 335 339 346 344 336 334 334 336 339 341 340 339 337 336 336 336 335 334 334 334 335 334 335 336 336 333 331 331 331 330 331 331 330 330 330 330 330 329 329 329 328 328 328 327 327 327 327 327 328 328 328 329 329 330 330 329 329 329 328 328 328 330 331 331 331 331 331 331 331 331 331 331 331 331 331 331 330 330 330 330 330 329 329 329 329
339 335 336 343 343 336 334 335 338 341 339 338 338 337 336 337 337 336 336 335 333 333 334 335 336 334 332 332 332 331 330 329 329 328 328 327 328 328 328 327 328 327 327 327 326 325 326 326 326 326 326 327 327 327 327 327 327 327 327 327 326 326 327 329 329 330 330 330 330 330 330 330 330 330 330 329 330 330 330 329 329 329 329 328 328 328
340 337 336 341 340 336 335 337 339 339 338 339 338 335 335 337 337 337 337 335 333 333 334 334 333 333 333 332 331 330 328 328 328 327 327 327 326 326 326 326 326 326 326 326 325 324 325 325 325 325 325 326 326 325 325 325 325 326 325 325 325 325 325 326 327 328 329 329 328 328 329 329 328 328 328 328 328 328 328 328 327 327 327 327 326 325
345 342 339 341 341 337 335 336 337 337 339 341 339 335 334 334 333 335 336 334 335 335 333 332 332 332 331 329 327 326 325 326 327 326 326 326 326 326 325 325 325 325 325 325 324 324 324 324 324 324 324 324 324 324 324 324 324 325 324 324 323 323 323 323 324 325 326 327 327 327 327 326 327 326 326 325 325 325 325 325 324 324 324 324 324 323
346 343 337 337 337 334 332 334 335 336 337 337 335 333 333 333 332 335 337 336 336 335 332 332 332 329 327 325 323 323 324 325 325 325 325 326 325 325 325 324 324 323 323 323 323 323 323 323 323 323 323 324 323 323 323 323 324 323 323 322 322 322 322 322 322 323 324 324 324 324 323 323 323 322 321 320 319 319 319 319 319 320 321 321 322 321
344 342 335 332 331 332 334 335 333 334 338 339 336 332 333 333 332 334 339 339 336 333 331 331 330 327 323 322 322 322 322 323 323 323 324 324 324 324 323 323 323 323 322 322 322 322 322 322 322 323 323 323 323 323 322 322 323 322 321 321 320 319 320 319 319 320 322 323 321 320 320 320 320 319 318 317 316 314 314 315 316 317 317 318 318 318
338 336 334 333 331 334 339 337 333 337 340 338 334 331 330 330 328 330 336 338 334 330 329 329 328 325 322 322 322 321 322 323 323 322 322 324 323 322 322 322 322 322 322 321 322 322 322 322 322 321 322 322 322 321 321 321 321 321 320 319 318 317 317 316 315 317 319 321 321 320 320 320 319 318 318 316 315 313 313 314 315 315 314 314 314 314
336 335 337 337 334 334 337 336 335 337 336 331 331 331 329 328 328 330 335 338 333 328 328 328 326 323 322 322 322 322 324 325 324 322 321 323 323 322 321 321 321 321 321 320 321 321 322 322 321 320 320 321 321 320 320 320 320 319 319 318 317 316 315 314 313 313 315 317 318 320 320 319 319 318 317 316 315 314 314 315 315 315 314 312 311 312
339 337 337 337 336 335 335 334 332 333 332 330 330 331 328 327 329 333 338 339 332 327 328 328 325 323 323 323 323 324 324 324 323 321 320 321 322 321 321 320 319 319 319 319 319 320 320 321 321 320 320 320 320 320 319 319 319 318 318 317 316 315 315 313 312 311 311 312 314 317 318 318 318 318 317 316 315 314 314 315 315 316 315 314 312 312
337 333 331 333 335 334 333 333 331 331 331 330 330 329 328 328 331 335 338 336 330 327 329 328 326 325 325 325 324 324 323 321 320 319 319 320 320 319 318 318 317 317 317 317 318 318 319 319 319 319 319 319 319 319 319 318 318 317 317 316 315 314 313 313 311 311 310 310 311 313 316 316 317 317 317 317 315 313 313 314 314 314 315 315 315 314
335 333 331 330 331 331 332 334 333 330 329 328 329 328 327 330 335 336 334 330 328 328 328 327 326 326 325 326 325 323 320 319 319 319 319 319 318 317 317 317 317 316 316 316 316 317 317 317 317 316 317 317 318 318 318 318 317 317 316 316 315 314 313 312 311 310 309 308 308 309 311 313 314 315 316 316 316 314 313 313 313 313 313 314 315 314
333 334 334 330 328 328 332 334 332 329 327 326 329 330 329 333 336 333 329 329 329 328 328 327 326 325 325 325 324 322 320 318 318 318 318 318 317 317 316 316 315 315 315 314 315 315 315 315 314 314 314 314 315 315 316 316 315 314 314 313 313 314 314 313 312 311 310 309 309 309 309 309 310 311 311 312 313 313 313 313 314 313 313 313 313 313
329 331 333 331 328 328 332 333 330 329 328 327 329 331 331 331 331 329 328 328 328 328 327 326 325 323 323 323 322 321 319 318 317 318 317 317 316 315 315 315 315 314 314 314 313 313 313 313 313 312 312 311 311 311 311 311 311 310 310 310 311 312 312 313 313 313 312 311 311 310 310 310 310 310 310 309 309 308 309 310 311 310 311 312 313 313
326 327 328 328 327 327 330 331 329 328 328 327 328 329 329 329 329 328 328 328 328 327 325 324 323 322 322 322 321 319 318 318 317 318 317 316 315 314 314 314 314 314 313 313 312 311 311 311 311 310 310 310 310 310 310 310 310 310 309 309 309 309 309 310 310 311 311 311 311 311 310 309 309 310 310 310 309 308 307 307 307 306 307 308 310 310
325 325 327 328 328 327 328 328 328 327 327 327 327 327 327 328 327 327 327 328 328 327 324 323 323 323 322 321 320 318 318 318 317 317 316 316 315 314 314 314 313 313 313 312 311 310 309 309 309 308 308 308 308 309 309 309 309 309 309 309 308 308 308 308 308 309 309 309 309 310 309 308 308 309 309 310 311 310 308 307 307 307 306 306 306 306
325 325 328 330 329 328 328 327 326 327 326 326 327 327 326 326 325 325 326 327 326 325 323 322 322 322 321 321 320 319 318 318 317 317 316 315 314 314 313 313 313 313 312 311 311 310 310 310 309 309 308 308 308 307 308 308 308 308 308 307 307 308 308 308 309 308 308 308 308 308 308 308 307 307 308 310 310 310 310 309 307 307 307 307 306 305
325 325 328 330 328 327 327 326 325 326 326 326 326 325 324 324 323 323 324 325 324 323 323 322 322 322 321 321 321 320 318 317 316 316 315 315 315 314 314 314 313 312 312 311 310 309 309 309 310 309 309 309 309 308 308 308 307 307 307 307 306 307 307 307 308 308 308 307 307 307 307 308 307 306 307 308 309 309 310 309 308 307 307 307 307 306
324 326 328 328 327 326 326 325 325 326 326 324 323 322 322 322 321 321 322 323 323 322 322 322 322 322 321 320 319 318 317 316 316 316 316 315 314 313 313 311 310 311 311 311 311 309 308 307 308 309 308 308 309 309 309 308 307 307 307 307 307 307 306 306 307 307 307 307 307 306 306 306 307 306 306 307 308 308 308 308 307 307 307 307 307 306
324 326 327 327 327 327 326 325 325 325 324 322 320 320 320 319 319 320 321 321 322 322 322 322 321 321 320 319 318 318 317 316 316 316 315 314 312 312 311 310 310 310 311 312 311 311 309 308 308 308 308 307 307 308 309 308 307 307 307 307 307 306 306 306 305 305 305 306 306 306 305 305 306 306 306 307 307 307 307 307 307 306 306 306 306 306
325 325 326 327 326 325 323 322 322 322 321 320 320 319 319 318 318 319 318 319 319 320 320 319 319 319 319 318 318 317 316 316 316 315 314 313 312 312 312 312 312 311 311 312 312 311 310 309 309 309 309 308 308 308 308 308 307 307 307 308 307 306 307 307 306 305 304 304 304 306 306 305 305 306 307 307 307 307 307 307 307 307 307 306 306 306
Wind_Speed
2 2 1 4 5 6 5 6 6 5 4 4 3 3 4 3 2 3 2 2 4 2 3 1 4 3 2 1 2 7 7 7 6 5 6 3 5 9 10 12 13 13 12 13 19 22 24 24 23 25 25 24 24 24 25 25 24 23 23 24 24 24 23 21 21 21 20 19 17 16 14 11 8 7 8 8 9 8 6 6 7 7 8 10 10 6
2 1 4 7 8 8 6 5 4 3 3 2 3 2 1 2 2 2 1 1 1 2 2 3 4 4 2 0 2 5 5 5 6 6 5 5 6 9 14 15 14 13 13 15 19 21 22 22 21 23 25 26 26 26 25 25 24 24 24 24 24 24 23 21 20 21 20 17 15 14 13 10 7 6 6 8 10 9 7 8 8 7 8 11 10 5
2 1 6 7 7 6 5 5 4 3 2 2 3 2 2 1 1 2 2 1 2 2 1 3 4 4 2 1 2 2 2 4 8 8 9 11 12 14 17 17 17 17 17 16 20 21 18 18 20 24 25 24 25 25 25 25 25 24 24 24 24 24 22 20 20 20 18 16 13 12 11 9 7 6 5 6 9 9 7 8 7 6 8 9 6 3
2 3 8 6 3 3 3 4 3 2 2 2 2 2 1 2 2 1 3 1 2 3 2 1 3 2 2 2 2 1 2 5 9 8 9 12 15 17 19 20 18 18 18 18 18 17 16 18 24 27 26 25 26 26 25 26 26 24 23 23 23 23 21 19 19 18 17 15 14 12 9 8 7 7 6 7 10 10 8 7 7 6 7 8 4 2
1 4 5 5 2 1 2 4 2 2 3 3 4 3 3 3 3 2 2 0 2 3 2 2 2 2 0 2 1 2 3 4 5 6 7 11 15 15 16 17 17 16 18 19 17 14 16 23 28 28 27 27 27 27 26 26 25 23 22 21 21 21 21 19 18 18 18 17 15 13 11 10 9 8 8 10 12 11 8 7 8 7 7 6 4 2
3 7 7 3 4 1 1 4 3 3 2 3 3 4 5 5 4 3 2 1 3 2 1 2 2 3 1 1 0 2 3 3 1 3 6 11 14 15 15 16 16 15 17 20 19 17 20 27 28 27 27 28 28 27 26 26 25 23 20 20 20 20 20 19 18 20 20 18 16 15 14 13 12 10 11 12 13 11 8 6 6 6 7 6 4 3
2 5 7 4 3 0 1 4 3 5 3 1 1 4 7 7 5 4 3 3 2 1 2 2 3 2 3 2 1 3 3 2 1 4 6 11 14 14 14 14 15 17 18 20 20 19 25 31 30 28 27 27 27 25 24 25 25 22 20 19 19 19 20 19 20 22 21 18 16 16 15 13 12 11 11 12 12 11 8 7 6 6 7 7 4 3
4 4 4 4 1 2 2 4 4 4 5 1 2 7 8 6 5 3 3 4 1 1 1 3 4 2 3 3 2 3 2 3 4 5 6 10 14 14 12 12 16 21 19 18 21 25 31 33 29 27 25 23 24 22 22 24 24 22 21 20 19 19 20 21 22 22 20 17 17 16 15 14 12 11 10 12 12 11 11 10 7 6 7 7 4 3
4 6 6 5 2 1 3 4 3 5 4 2 2 8 6 5 5 4 5 4 1 2 3 3 4 2 3 3 1 2 3 3 4 5 6 9 14 15 12 12 15 17 16 19 27 32 33 31 27 24 22 22 22 20 20 22 23 22 20 20 20 19 21 22 23 22 19 17 17 17 16 14 12 11 10 11 13 13 12 11 9 7 6 6 6 6
1 7 10 7 2 2 4 3 5 5 3 2 7 9 6 5 4 4 5 3 3 4 1 2 4 2 2 3 2 1 2 2 3 5 5 9 15 18 17 16 16 18 22 27 33 33 30 28 27 23 20 21 21 20 21 22 22 21 19 20 21 20 21 23 23 21 19 18 17 17 16 14 13 12 10 10 11 11 11 12 11 9 8 8 9 9
3 4 8 6 2 4 3 4 5 4 4 6 6 6 5 5 3 3 4 2 3 2 1 0 1 3 0 3 2 1 2 3 4 3 3 7 12 16 19 21 23 25 27 29 31 31 27 26 25 22 20 21 21 21 21 22 22 21 19 20 21 20 20 22 22 21 19 17 17 17 16 14 13 12 11 11 10 10 10 11 12 11 10 9 9 9
3 1 2 3 2 4 4 2 3 3 4 5 4 4 4 4 2 3 3 3 3 2 3 2 2 2 2 1 3 4 4 4 4 3 3 4 10 15 19 20 23 25 24 25 28 28 25 24 23 22 22 22 22 21 20 20 20 19 19 21 22 20 20 21 22 21 19 17 16 17 17 15 13 11 11 11 10 10 10 10 11 10 10 10 9 9
3 2 3 4 3 4 5 3 1 1 2 4 4 4 3 3 2 2 2 1 0 2 2 3 3 2 1 0 4 6 6 6 4 7 8 8 16 22 21 19 22 22 21 23 26 26 24 22 21 22 24 24 23 21 19 19 19 19 21 23 22 21 20 20 20 20 18 16 14 16 17 15 12 10 11 11 10 9 10 10 10 10 10 11 11 9
3 4 4 4 4 2 6 3 1 1 1 3 3 3 3 1 1 0 1 0 1 2 0 2 3 2 1 2 6 7 6 7 8 11 9 10 20 23 20 20 24 23 21 21 21 22 22 20 20 24 26 26 24 22 20 19 20 20 21 22 21 20 19 19 20 19 18 16 14 14 16 15 12 11 11 11 11 10 10 10 10 10 10 12 12 10
2 4 2 0 1 1 3 4 5 3 2 1 1 3 3 2 3 2 2 2 2 2 2 3 2 2 1 2 5 6 5 5 6 5 2 11 19 20 19 20 22 22 21 20 19 21 23 21 23 26 27 26 22 19 17 18 19 19 19 20 20 20 19 19 19 19 17 16 14 15 16 15 13 12 11 10 10 11 12 13 13 12 11 12 12 11
2 3 4 3 2 3 1 2 4 4 2 0 0 2 1 2 3 2 2 3 3 2 2 2 1 1 1 1 5 5 4 4 6 9 13 14 14 15 16 14 16 18 18 19 20 22 23 21 21 23 25 23 19 16 16 17 17 17 18 18 19 19 18 19 19 19 18 16 15 15 15 15 13 11 11 10 10 12 13 14 14 14 14 14 13 12
2 3 5 1 0 3 4 4 4 3 1 2 2 1 3 3 5 4 1 2 3 3 2 2 1 2 0 2 5 5 4 6 8 9 12 15 14 14 14 14 16 18 17 18 19 20 20 18 17 18 20 19 17 16 16 16 16 15 16 17 18 18 18 18 18 19 19 18 17 15 15 15 15 12 12 11 11 12 13 14 14 15 16 16 15 14
2 2 5 1 0 4 5 5 3 1 2 3 2 3 3 1 3 3 3 2 3 3 2 2 2 1 2 2 3 5 7 7 6 5 9 13 13 13 14 16 17 17 16 16 16 17 16 15 15 15 16 15 15 14 13 14 15 14 15 15 16 17 17 18 19 20 20 19 18 16 15 16 16 15 14 13 13 13 15 15 15 15 17 17 15 14
3 2 5 3 2 3 4 6 2 5 6 2 2 1 1 2 1 1 2 2 2 2 1 2 2 1 2 2 3 6 6 5 4 4 6 8 10 11 14 16 16 16 17 16 15 15 14 13 13 13 13 13 12 11 12 13 14 13 12 13 14 16 17 19 20 21 21 21 20 18 17 17 18 17 17 17 17 16 17 17 16 15 17 17 15 14
3 3 4 4 0 3 3 3 1 3 5 2 1 3 1 2 2 1 1 2 3 3 2 2 2 2 2 2 3 4 3 3 3 4 5 7 10 12 13 14 15 16 16 15 14 13 12 11 10 10 10 10 9 9 10 11 11 11 11 13 14 16 17 18 20 21 22 23 22 21 20 20 19 19 20 21 22 21 20 18 17 16 16 17 17 15
2 2 2 5 3 3 1 2 5 5 2 1 1 1 0 1 1 2 1 1 3 3 2 2 2 1 2 2 2 2 2 4 3 4 6 8 12 14 13 13 13 15 15 14 13 11 10 9 8 8 8 8 8 8 7 8 9 10 10 11 13 15 16 17 19 20 20 22 22 22 21 20 18 18 20 22 25 25 23 21 20 19 19 19 18 16
1 1 1 3 4 1 3 3 6 9 6 4 3 3 3 3 2 2 2 1 1 3 3 3 3 1 1 1 2 2 2 3 4 5 7 11 14 15 14 14 14 14 14 13 11 11 10 9 8 7 7 7 7 7 7 7 7 8 8 9 11 13 14 15 16 17 18 18 18 19 19 19 18 17 18 21 24 25 25 24 23 22 21 21 21 19
2 3 1 2 2 3 4 2 3 7 5 2 2 2 3 3 3 4 3 1 2 4 2 2 3 1 2 1 2 2 2 3 5 7 9 13 16 17 17 16 16 15 14 13 12 12 11 9 8 5 5 4 4 5 7 6 5 5 6 8 9 10 11 11 11 13 14 15 16 17 17 17 17 18 20 22 22 22 23 24 25 25 23 23 23 22
2 2 2 3 4 3 3 4 3 2 3 2 2 1 3 3 3 4 4 3 3 2 1 2 2 2 3 2 2 3 4 4 5 9 12 15 17 19 19 18 18 18 17 16 15 14 12 10 8 6 5 4 3 3 4 3 3 3 4 6 6 7 8 8 9 10 11 13 14 14 14 14 15 17 21 22 21 20 20 21 23 25 26 25 25 23
2 1 2 3 4 5 6 6 6 5 4 2 3 4 2 3 5 4 3 4 3 1 2 4 2 2 3 3 3 3 4 5 6 9 14 16 17 20 20 19 19 19 18 18 17 16 14 12 11 10 8 6 4 2 1 0 1 0 2 3 5 6 6 6 8 10 10 10 10 11 12 13 13 14 15 15 15 14 15 15 17 19 21 22 22 23
1 1 2 4 3 1 2 2 2 3 4 3 5 9 6 2 7 5 2 4 3 0 3 4 3 2 2 2 2 2 3 5 7 10 14 16 17 20 21 21 19 19 19 18 18 17 16 16 14 12 11 9 7 5 3 2 2 2 1 1 3 5 5 5 7 7 7 7 8 9 10 11 11 10 9 8 7 7 8 10 11 12 11 11 12 16
3 2 1 5 5 4 4 4 5 2 1 2 7 11 8 2 6 5 3 3 4 4 4 3 4 7 3 3 3 3 3 5 7 10 13 15 18 20 22 22 20 19 19 19 19 19 18 18 17 16 14 12 11 11 9 8 7 6 4 3 3 3 3 4 5 4 5 5 6 7 8 8 7 6 5 5 5 5 6 7 8 7 6 5 5 7
4 3 2 3 2 3 5 3 1 2 3 2 6 9 7 3 5 5 4 6 7 6 4 1 5 8 5 4 4 3 3 5 6 10 14 16 19 21 22 23 22 21 20 20 20 20 19 18 17 16 15 14 14 13 12 10 9 7 6 6 5 4 4 4 4 5 6 6 5 6 6 6 5 4 4 6 6 5 5 5 6 6 5 5 5 5
5 1 2 1 2 3 1 4 4 5 4 2 6 7 5 5 6 6 4 6 6 6 7 8 8 8 7 6 5 4 4 7 10 14 17 19 20 21 22 22 22 21 20 19 18 18 18 17 16 15 15 14 13 12 10 9 8 6 5 5 5 5 5 5 5 6 7 6 5 4 4 4 4 3 3 4 4 4 4 5 6 6 5 5 6 6
4 1 2 2 4 4 5 2 6 8 5 3 7 7 5 7 7 7 6 5 7 9 10 12 10 7 5 5 6 6 7 13 16 17 19 20 20 20 21 22 22 21 20 18 17 16 16 16 15 15 14 13 12 11 10 10 8 6 6 5 4 4 4 3 4 4 5 4 3 2 3 3 3 2 2 3 3 4 5 6 6 5 6 7 8 7
3 1 2 3 4 3 6 5 6 9 7 3 6 7 7 9 9 9 8 9 12 11 9 10 10 5 2 5 9 11 12 14 16 17 17 18 19 20 21 21 21 21 20 18 17 16 16 15 14 14 13 12 11 11 11 9 7 5 4 4 5 5 4 4 4 4 3 2 2 2 4 5 5 4 4 5 5 5 5 5 6 6 7 7 8 7
3 1 2 4 4 3 4 3 3 6 6 2 4 6 6 5 6 5 4 6 10 12 10 9 8 5 4 7 10 13 14 13 13 15 15 16 19 21 20 19 19 19 18 17 16 15 14 14 14 13 12 11 10 10 10 8 6 4 2 2 2 2 2 3 3 3 2 2 2 1 2 2 2 3 3 4 4 3 4 4 5 6 7 7 8 8
2 1 2 3 3 3 2 2 2 3 5 1 3 3 4 1 6 5 3 3 8 13 11 7 6 5 6 8 9 10 11 10 11 14 18 20 21 22 21 19 19 18 16 15 14 13 14 14 13 12 11 10 9 8 7 6 6 5 5 4 3 2 2 2 3 3 3 2 2 3 4 3 2 2 2 1 1 1 1 2 3 4 4 5 5 5
3 3 1 2 3 3 3 3 4 3 2 3 5 3 3 3 8 8 5 5 6 6 5 5 6 7 7 7 8 9 9 10 14 18 22 24 23 23 21 20 18 16 15 14 12 13 13 13 12 12 12 12 11 10 10 9 9 8 8 7 6 4 4 5 5 5 5 4 2 2 3 3 3 4 5 5 4 3 1 1 2 3 3 3 4 4
3 4 2 2 4 2 2 5 4 1 5 5 4 4 4 2 10 11 6 3 4 7 10 10 8 8 9 10 13 16 17 19 20 21 22 23 23 22 20 18 16 14 14 13 12 12 11 10 10 12 13 13 13 13 12 12 11 10 9 7 7 6 6 7 7 7 7 6 5 4 3 2 3 4 5 6 5 4 4 4 4 5 4 4 4 4
4 3 1 2 3 1 1 3 2 5 5 4 5 5 4 4 10 12 6 4 1 5 10 11 9 8 12 17 20 23 27 26 24 21 19 19 18 18 17 16 15 14 13 12 11 11 10 8 9 10 10 11 12 12 12 10 9 9 9 8 8 8 8 8 9 9 9 7 6 6 5 5 6 7 8 9 9 9 10 10 10 10 9 8 7 7
4 3 1 1 1 2 3 2 1 3 5 4 2 2 3 4 2 4 3 2 3 4 5 9 10 10 15 20 24 27 30 26 18 14 15 17 15 15 15 14 14 14 13 11 10 10 9 9 9 9 9 9 10 10 10 8 7 8 9 8 8 9 8 9 10 10 10 9 8 8 8 8 9 11 13 14 14 15 15 14 15 16 14 12 11 11
3 2 2 2 0 2 4 2 1 2 2 4 3 5 8 12 12 10 2 2 3 5 8 10 11 14 16 19 22 25 24 17 7 6 14 17 16 16 15 13 13 14 12 11 10 10 10 8 9 9 9 9 10 10 9 8 7 7 8 9 9 9 10 11 12 11 10 9 8 7 7 7 8 9 11 13 15 17 17 17 18 18 17 15 14 12
5 3 4 4 2 2 4 3 1 2 3 5 4 5 4 9 10 10 3 2 2 5 12 11 11 15 18 18 20 19 14 7 2 5 15 19 17 16 16 15 14 13 11 10 10 11 11 10 10 10 10 10 11 10 8 7 7 8 9 9 8 9 11 12 12 11 10 9 7 5 5 5 6 7 9 11 14 16 16 17 17 17 17 18 17 15
5 4 3 3 1 1 4 2 2 2 3 4 4 2 3 7 7 6 2 4 5 11 13 11 12 15 17 18 18 12 7 6 7 10 18 21 18 16 17 16 15 13 11 10 9 10 10 10 9 9 10 10 9 7 6 6 7 9 10 10 9 10 10 11 11 11 10 9 8 6 5 5 6 6 7 9 10 12 12 13 13 13 14 15 16 17
3 3 2 2 2 2 3 2 2 2 2 5 4 1 5 6 6 3 4 5 11 16 14 15 18 16 15 17 16 10 9 14 18 20 22 21 18 17 17 15 14 13 12 11 9 7 7 7 7 7 8 8 7 6 5 5 7 9 9 10 11 11 10 8 8 9 10 10 9 8 6 6 6 6 6 7 8 9 10 10 10 10 10 10 11 13
2 2 2 2 2 2 2 2 1 2 2 3 5 2 5 5 2 3 3 7 18 21 19 20 20 17 16 18 19 20 21 22 23 23 22 20 18 18 16 14 13 12 10 9 8 6 6 6 6 6 7 6 6 5 5 4 6 7 7 7 9 10 9 8 8 9 9 10 10 10 9 8 7 6 5 5 6 8 10 10 9 9 9 8 7 8
1 0 1 0 2 1 2 2 0 3 3 1 3 2 2 2 3 4 7 14 21 23 22 21 18 16 18 22 24 26 26 24 23 22 20 18 17 15 14 13 12 11 9 9 8 7 6 6 6 7 7 6 6 5 4 3 3 4 5 6 7 6 6 7 8 9 10 10 10 10 11 11 11 9 8 7 6 7 8 8 8 9 9 7 6 6
0 1 1 2 1 2 1 1 3 3 3 3 3 3 2 3 6 9 11 14 20 23 22 21 17 14 18 24 27 26 25 25 24 21 19 18 16 15 14 13 11 11 9 9 8 7 7 7 8 8 8 8 8 7 5 4 4 5 5 6 5 4 4 5 5 6 7 8 8 8 8 9 10 10 9 9 8 7 6 6 6 7 8 8 7 7
1 1 3 2 1 2 3 3 2 1 2 1 2 4 7 10 13 15 15 16 21 24 24 24 23 21 24 29 29 27 26 26 23 20 19 18 16 16 15 13 12 11 9 8 8 7 7 8 8 7 7 7 7 7 6 6 5 6 7 7 5 4 4 5 4 3 3 3 4 5 5 6 7 7 7 7 8 9 8 8 8 9 8 7 8 9
1 1 3 2 1 0 1 1 2 4 5 5 8 11 13 13 13 13 15 18 23 26 28 29 29 29 30 31 29 27 26 24 21 20 19 18 16 14 13 12 11 10 9 8 8 7 8 8 7 6 6 6 6 6 6 5 4 4 5 6 5 4 4 3 3 3 2 2 2 2 4 4 5 6 5 5 5 7 8 9 9 10 10 9 9 9
2 3 1 2 2 1 1 2 2 5 5 6 10 12 13 13 13 13 16 19 23 27 29 30 30 30 29 27 25 24 22 20 20 19 17 16 15 14 13 12 12 10 9 8 7 7 7 7 7 6 6 6 6 5 4 3 3 3 3 4 3 2 2 2 3 2 2 3 3 2 3 4 4 5 6 5 5 6 6 8 9 9 10 9 9 10
4 5 2 2 2 2 0 1 6 9 8 7 11 13 16 18 18 18 19 21 24 28 29 28 28 26 24 22 20 21 21 19 19 18 17 16 15 14 12 11 10 10 9 7 5 4 4 5 5 4 3 3 4 4 3 2 1 2 4 5 4 2 2 3 3 1 1 3 5 4 4 4 4 4 5 6 6 7 8 8 9 10 10 10 8 8
6 5 2 1 3 3 2 3 8 9 8 11 13 15 19 21 21 23 24 24 26 28 28 26 24 21 19 19 19 20 22 20 18 17 16 14 12 10 9 8 8 8 7 6 4 3 4 3 4 3 1 2 2 1 2 2 1 2 3 4 4 5 4 4 3 3 4 5 7 7 5 5 5 5 5 5 6 7 7 8 8 10 10 11 10 9
5 2 1 2 3 1 2 3 5 5 6 12 16 17 19 22 25 27 28 27 26 26 25 24 22 19 18 19 18 20 21 20 16 14 12 10 9 9 8 8 8 7 6 4 3 4 7 5 2 2 2 1 2 1 1 2 3 3 3 4 5 7 8 8 6 6 7 9 9 7 5 4 5 6 6 6 6 7 7 7 8 9 10 11 12 12
3 1 1 3 4 4 8 11 11 11 12 15 19 20 20 23 26 28 28 27 26 25 24 23 22 21 19 18 18 18 19 18 15 12 11 10 9 9 8 8 7 6 4 3 3 3 5 5 3 2 4 2 2 3 4 6 6 5 5 5 6 7 9 11 10 8 8 8 8 8 6 5 6 7 8 7 8 9 8 8 9 10 11 11 11 11
Wind_Direction
31 24 293 236 236 232 225 205 210 230 247 284 274 221 231 234 273 287 285 231 185 117 329 337 82 69 87 94 92 101 93 93 111 112 105 104 126 155 180 184 192 194 185 190 189 190 193 190 188 189 187 183 183 183 183 184 185 187 186 184 185 184 184 184 180 180 182 179 175 180 187 193 204 213 224 238 241 245 254 282 304 306 315 313 306 301
38 60 253 238 228 229 235 228 228 259 265 276 264 214 158 170 226 289 356 251 231 93 322 327 61 57 65 305 47 102 102 96 127 126 125 160 167 183 196 195 200 193 184 193 191 191 194 188 185 189 186 182 183 184 186 189 188 190 192 189 187 185 186 185 181 182 184 187 189 189 195 202 212 220 237 250 242 243 266 287 296 297 311 316 305 294
357 267 276 259 230 228 241 235 224 251 268 284 277 150 128 243 213 314 348 18 12 90 278 325 58 47 31 45 25 78 105 122 149 164 168 173 176 194 207 203 199 190 186 192 190 191 190 185 189 193 190 186 186 186 189 191 190 191 192 192 191 189 187 185 183 186 190 194 197 197 202 212 224 229 241 254 236 235 262 277 279 291 313 325 320 237
34 305 315 310 219 206 245 253 246 278 287 245 223 129 200 242 124 292 300 341 34 89 164 193 84 40 9 39 25 145 118 124 151 174 183 184 185 198 213 209 198 190 188 188 189 191 187 189 196 197 193 188 188 188 188 190 191 191 192 193 193 192 190 186 185 190 194 195 193 197 206 215 227 232 228 228 224 227 249 260 261 282 313 337 349 232
224 228 295 327 307 206 278 295 291 281 289 248 199 161 190 191 136 189 247 302 39 67 145 141 69 339 22 55 10 136 115 113 151 174 190 202 203 207 217 213 203 198 191 186 186 186 192 200 202 200 196 190 188 187 185 190 193 192 192 194 194 194 192 188 186 188 190 192 191 195 201 207 215 220 215 213 214 222 240 253 261 278 300 328 355 331
262 192 184 259 289 241 253 285 254 189 226 290 227 182 158 144 131 141 163 76 43 15 266 103 56 320 315 121 229 122 92 66 108 196 205 210 211 211 211 210 210 206 195 189 185 182 195 206 206 201 196 190 188 186 184 190 194 193 193 194 195 194 192 188 185 185 187 191 194 199 206 213 218 221 217 214 216 224 239 255 265 275 284 297 331 350
253 177 172 204 259 323 280 270 238 167 140 344 233 139 123 121 120 131 136 99 73 270 270 82 87 318 326 331 1 58 73 88 182 226 228 220 220 218 208 204 206 203 198 191 185 188 202 210 207 197 190 188 189 189 188 190 193 193 193 193 193 192 191 187 184 186 190 194 199 206 217 227 233 233 227 221 220 225 234 245 256 271 271 270 295 341
175 182 192 201 203 21 300 258 225 148 118 267 197 118 112 112 114 127 103 80 101 267 333 76 89 47 331 334 30 78 125 205 203 211 227 221 223 226 210 203 205 199 195 190 189 198 207 208 203 193 189 189 190 192 193 191 193 196 193 191 192 191 189 187 186 191 195 198 203 210 220 231 238 241 240 230 222 222 230 237 248 263 261 251 260 324
158 186 198 192 158 90 247 236 185 130 108 268 110 96 94 96 104 110 79 54 38 39 31 100 105 57 308 316 33 141 189 216 210 210 215 210 215 216 200 201 207 194 187 193 198 202 206 205 202 199 193 190 189 191 194 193 194 198 194 190 193 192 189 188 190 196 201 204 209 217 224 230 235 236 241 237 228 228 231 233 242 248 241 246 264 287
206 224 197 173 150 193 227 209 163 147 130 112 90 84 75 72 74 80 78 37 20 47 44 143 126 125 272 301 343 193 201 203 216 217 211 207 209 205 190 181 178 176 185 196 201 204 205 203 203 203 196 190 190 192 194 193 193 198 196 192 194 195 191 191 195 201 207 211 218 225 228 230 232 231 231 229 228 234 237 237 239 245 248 261 279 288
270 241 188 175 187 183 178 158 169 182 142 112 84 72 61 49 49 79 87 58 38 11 280 174 171 167 194 297 282 272 248 216 227 234 220 209 200 197 191 173 164 177 191 197 199 203 205 205 204 202 197 193 192 193 194 191 191 197 199 195 196 197 195 197 202 206 210 217 225 229 229 230 232 233 231 224 222 227 232 235 238 248 261 273 286 295
329 344 195 234 233 139 109 113 171 182 138 113 77 73 61 11 3 51 39 54 67 283 272 302 267 177 104 285 284 305 288 246 231 230 230 176 159 183 195 177 169 185 197 197 197 199 202 206 205 200 197 196 196 196 194 191 192 196 197 196 199 200 200 202 206 210 212 220 229 230 230 232 233 236 235 229 222 219 221 230 238 246 257 267 275 288
336 298 281 299 294 131 106 62 42 11 55 87 77 84 71 13 11 34 12 32 99 243 270 320 337 33 100 31 339 326 308 296 258 226 227 168 157 181 190 174 172 185 195 196 197 197 199 204 206 203 200 198 199 199 194 192 192 194 195 196 200 203 204 206 208 211 214 221 228 230 231 234 236 237 236 232 225 221 227 236 241 242 247 256 264 277
348 305 313 341 324 136 122 110 90 311 78 112 120 117 108 97 78 331 227 170 224 192 217 353 33 36 287 352 343 318 304 295 260 247 242 176 167 181 180 170 176 185 192 195 195 195 195 198 203 204 201 200 202 200 195 192 192 195 198 199 203 206 208 211 212 214 219 225 230 232 234 235 235 235 236 237 236 235 245 254 256 254 253 256 262 273
41 318 291 106 288 116 118 158 166 159 112 106 193 111 119 166 149 180 194 164 188 162 44 0 44 48 315 346 337 316 308 288 270 302 46 138 157 168 165 165 171 177 186 188 189 193 195 197 201 200 198 200 203 201 197 196 196 200 202 203 207 207 208 214 215 218 224 230 233 235 237 236 232 232 235 241 247 249 255 262 265 263 260 259 263 272
58 288 243 216 200 130 112 194 145 103 75 101 22 81 129 202 145 139 174 150 155 125 35 348 46 73 152 46 6 351 344 352 17 44 71 96 117 132 133 135 149 162 178 185 187 190 193 197 199 197 197 199 202 201 200 203 207 208 207 207 209 207 210 215 217 222 228 232 237 241 242 239 234 231 235 241 247 252 257 262 266 266 264 261 261 267
47 291 266 270 90 168 181 180 136 116 131 145 119 176 223 184 121 119 90 38 73 84 39 353 36 22 36 62 22 15 30 27 27 49 72 83 100 116 114 121 144 157 171 187 191 189 191 195 194 195 197 198 198 197 201 209 214 212 208 208 210 210 213 218 222 228 232 233 237 243 247 244 239 235 238 243 244 250 258 264 269 269 265 262 261 261
128 303 278 160 269 233 177 124 100 64 58 108 159 246 246 83 81 107 97 22 38 75 28 0 55 15 7 52 24 34 57 46 24 36 63 86 112 122 117 128 149 159 167 184 190 189 191 190 187 192 198 195 191 194 204 212 214 211 210 212 216 219 222 225 228 230 232 233 235 241 247 248 247 246 246 247 245 251 258 263 271 271 263 261 262 258
124 24 289 231 174 203 129 89 41 340 10 87 176 306 70 92 21 37 88 95 82 93 60 21 53 35 20 32 35 50 61 50 33 41 57 80 100 109 115 127 143 155 166 179 184 186 187 183 181 187 192 191 188 196 206 210 213 213 214 217 221 226 228 229 231 231 232 235 236 240 244 245 246 249 250 249 247 251 255 259 268 271 263 262 265 264
120 94 290 279 141 116 88 76 160 301 336 354 10 16 77 133 136 116 115 140 119 113 123 59 27 356 4 3 27 47 36 10 27 47 60 79 93 105 120 132 140 150 160 169 172 173 169 167 174 176 177 181 187 202 209 207 212 218 222 224 225 228 231 232 232 232 232 235 238 242 245 243 241 243 247 247 247 248 249 251 256 258 257 257 264 271
88 97 272 298 352 64 31 229 180 191 226 216 25 16 122 57 82 95 43 75 115 122 145 109 68 330 325 349 357 20 355 344 16 54 63 77 91 104 118 130 136 141 146 152 157 155 147 144 154 163 164 167 179 199 211 210 214 220 225 229 229 232 235 234 231 231 233 237 240 243 246 246 245 245 247 245 245 246 247 248 249 249 248 247 254 264
73 84 241 297 347 19 259 240 179 187 192 165 166 191 177 145 111 84 36 323 103 115 146 132 106 295 294 354 323 327 345 346 18 58 73 77 87 98 109 116 121 126 132 135 135 136 135 134 143 161 169 168 178 191 203 214 219 221 225 228 229 234 238 238 234 234 238 242 245 248 249 249 249 251 252 248 246 245 246 249 250 252 251 244 244 251
147 100 77 292 283 244 258 358 132 186 191 148 168 161 139 135 116 120 153 210 76 79 88 95 83 293 283 311 294 331 47 46 45 68 81 79 85 95 102 109 112 113 117 118 116 118 122 130 141 152 161 162 169 180 188 204 215 221 231 232 231 235 239 237 234 238 244 248 250 251 249 246 247 254 256 255 254 253 253 253 252 254 253 248 246 247
50 66 26 315 297 292 310 357 27 92 85 48 321 71 130 171 152 144 159 143 108 100 102 75 53 284 289 350 353 29 72 88 75 79 87 83 85 92 97 104 106 101 101 101 98 100 106 118 128 133 144 156 160 172 180 192 209 213 221 225 228 235 241 241 240 241 242 245 246 243 241 243 251 259 258 258 260 262 262 259 254 254 255 255 256 252
0 12 53 38 358 350 349 349 351 0 27 23 309 324 270 177 119 109 113 84 76 90 119 109 110 260 282 356 22 41 83 112 98 85 91 90 89 92 96 102 103 99 97 96 94 95 97 101 112 123 132 134 130 139 153 189 301 263 226 241 245 243 243 245 242 234 230 236 241 240 243 249 256 261 261 260 262 264 267 267 262 261 262 264 262 258
64 90 100 99 87 43 5 325 289 304 338 341 322 326 321 134 115 119 121 75 70 67 69 89 143 185 275 320 62 70 95 118 113 98 97 97 96 97 101 105 107 105 102 100 101 100 97 96 100 106 110 112 114 115 109 97 66 59 70 245 237 235 235 233 233 229 225 235 245 245 245 247 249 256 262 263 260 260 267 269 265 266 269 269 266 263
103 64 93 136 148 177 191 231 245 224 56 345 324 329 331 49 109 109 103 97 134 126 55 23 140 137 177 224 152 137 125 118 115 107 104 105 105 103 104 105 106 105 105 104 103 102 100 99 99 99 100 104 108 109 103 95 89 87 88 105 146 189 212 212 211 206 207 222 233 236 238 240 243 253 260 253 244 238 241 249 254 260 268 274 281 283
100 30 337 143 154 212 188 192 255 78 90 7 328 326 331 14 89 91 107 145 148 117 86 202 148 130 155 180 154 165 153 122 117 118 117 115 111 109 108 108 107 107 108 108 107 105 103 102 104 104 103 100 100 101 99 94 93 93 92 94 105 125 150 167 175 181 192 199 197 196 199 200 199 199 206 214 217 220 224 235 246 253 264 281 290 291
113 29 293 113 42 346 72 125 113 86 82 7 333 327 346 45 89 95 110 151 145 120 144 168 153 137 149 153 153 188 163 127 128 130 128 124 120 117 113 110 110 110 109 108 109 111 109 106 105 105 106 107 106 105 104 101 98 94 89 86 86 103 127 140 152 169 181 185 187 188 186 186 192 195 201 211 221 230 234 238 244 254 268 274 271 266
110 309 285 93 64 10 4 50 104 89 76 13 346 347 24 61 81 90 98 113 99 102 130 143 138 137 149 147 153 166 143 128 132 135 134 132 129 123 116 112 111 110 109 107 105 109 111 109 107 106 106 110 112 113 113 111 109 103 89 77 70 78 102 129 152 169 178 186 207 243 262 270 274 267 250 246 252 252 252 258 268 278 277 267 261 262
67 278 263 79 64 359 349 13 77 88 86 33 355 6 45 70 78 90 106 108 97 100 118 128 128 130 137 136 141 149 143 132 135 141 141 140 135 125 119 117 114 112 111 109 106 106 109 108 108 109 109 108 112 120 121 117 115 111 92 76 75 81 94 114 126 132 137 156 206 261 276 280 284 286 280 276 276 275 279 288 292 286 277 272 275 281
52 351 317 66 68 319 328 22 58 93 97 59 353 1 23 70 98 102 113 120 124 128 127 126 135 149 162 143 136 147 151 143 143 145 139 135 133 128 124 121 118 116 113 111 109 108 108 108 108 110 112 113 116 120 122 121 116 104 79 60 73 93 129 138 124 119 114 97 67 13 330 287 270 277 281 282 287 296 294 288 279 275 279 283 288 291
83 78 349 78 89 296 308 50 17 60 80 16 300 330 335 84 116 96 66 92 130 138 140 152 165 161 159 146 133 143 154 149 147 139 127 123 124 123 124 123 122 123 122 117 110 105 106 109 109 108 111 118 120 114 108 107 105 98 96 97 95 105 145 138 110 101 100 87 34 24 44 53 50 63 82 84 60 18 285 264 258 262 273 281 286 292
80 103 142 113 112 263 289 31 27 41 103 237 247 257 273 188 128 113 103 111 127 135 132 136 143 141 145 146 137 136 136 135 137 134 129 128 126 122 121 123 124 125 127 126 116 106 109 112 110 106 106 109 110 105 99 99 104 108 107 101 93 93 113 124 120 110 102 97 88 67 58 35 23 44 55 53 50 44 6 282 281 276 272 282 297 307
89 95 130 98 112 201 318 45 55 249 230 252 308 353 349 84 108 99 76 81 131 131 124 123 132 142 137 125 120 115 111 115 122 125 128 132 132 128 123 124 126 125 126 127 117 109 110 113 109 105 102 102 101 100 101 104 109 111 104 90 77 76 87 97 105 111 111 107 108 108 93 57 38 41 36 34 36 34 27 17 358 341 334 337 341 347
121 116 123 88 113 147 52 93 157 245 270 333 22 55 64 83 108 101 63 334 321 125 133 134 128 123 117 113 112 110 107 108 109 114 123 129 131 133 130 127 125 121 120 120 114 109 106 104 104 104 101 101 99 97 99 103 108 108 96 82 78 81 82 76 79 95 107 106 102 100 95 87 84 78 66 58 55 50 46 41 37 33 29 28 31 35
110 114 85 72 137 136 123 144 231 315 333 346 30 93 57 30 55 111 116 270 326 29 99 129 125 121 120 118 117 113 108 102 93 100 122 127 126 128 129 126 124 120 115 111 110 115 113 105 103 106 108 107 97 91 93 97 103 99 87 80 80 82 80 71 70 86 103 104 96 97 101 99 92 85 75 64 55 52 53 56 59 59 56 53 57 61
81 96 126 135 211 90 103 94 15 19 308 277 280 327 12 22 359 346 34 161 339 41 109 136 137 133 131 129 127 118 106 97 81 102 127 132 128 122 117 116 121 123 117 107 108 119 125 117 107 107 112 110 98 94 97 98 95 91 85 81 75 69 66 62 63 78 98 106 106 105 101 93 83 79 73 63 56 55 59 63 66 66 64 61 61 64
49 47 95 102 39 55 102 113 171 185 238 247 261 300 16 56 21 359 35 188 268 128 137 145 140 137 139 139 135 122 103 98 150 135 130 133 131 125 120 117 120 125 122 115 111 116 120 119 112 107 106 104 99 98 101 96 85 79 78 74 68 62 57 54 57 68 81 92 106 114 102 85 71 67 66 64 60 59 61 64 64 62 60 57 58 63
31 22 50 83 80 132 115 123 218 208 232 246 251 256 144 112 82 70 121 222 190 150 147 144 135 139 140 134 130 120 108 140 157 143 136 135 131 129 128 126 127 127 125 122 117 116 120 122 120 112 103 101 101 98 96 93 82 76 71 64 61 60 55 51 55 63 69 75 87 100 98 83 67 57 57 56 54 55 57 59 58 56 51 48 50 53
2 12 38 116 140 138 122 145 245 243 236 262 293 42 115 108 94 116 228 211 150 140 139 134 135 145 147 135 127 117 114 132 138 137 139 139 134 130 130 131 132 131 127 125 125 127 131 128 123 114 106 106 110 107 106 104 89 77 66 57 58 59 55 52 53 59 66 70 72 77 81 74 60 52 54 50 41 38 40 41 45 46 44 41 39 38
337 351 2 71 113 128 127 136 261 280 246 267 304 347 99 105 152 215 206 138 130 129 127 124 126 133 131 123 122 121 120 127 134 136 139 140 135 131 132 134 134 132 131 131 131 133 135 125 117 114 111 117 127 124 122 121 98 81 64 54 56 56 55 56 53 52 62 71 71 70 70 68 60 50 45 38 22 16 18 21 22 22 25 30 26 19
185 149 328 278 151 116 62 72 152 254 246 246 288 301 92 132 199 166 120 123 130 131 132 132 128 123 117 116 124 132 133 136 139 138 136 136 134 134 136 138 137 135 135 136 134 136 139 128 113 106 102 110 125 129 134 139 112 85 66 59 64 63 61 62 55 48 52 61 64 61 60 60 60 55 47 35 18 4 1 2 358 354 358 6 8 1
33 118 222 255 196 124 122 192 205 231 262 251 229 219 148 139 141 122 112 123 131 133 139 140 132 127 129 129 132 138 140 139 139 137 133 133 135 136 135 135 133 130 130 130 130 135 140 132 119 109 103 103 105 105 106 104 89 73 63 61 68 77 73 68 60 50 48 48 45 43 43 45 46 45 43 37 30 25 19 8 353 339 334 333 336 338
293 200 183 202 219 170 176 209 217 320 357 1 151 133 124 125 126 123 122 128 134 139 141 137 133 136 141 139 138 139 138 136 136 137 136 136 137 137 135 132 129 126 122 118 119 124 130 130 125 118 111 109 109 106 99 89 80 72 62 57 60 73 74 65 57 56 54 36 19 17 22 28 30 29 27 22 19 23 27 23 15 8 357 342 328 318
274 261 187 168 201 189 98 90 99 64 48 74 103 114 122 120 116 122 126 129 138 143 142 139 141 143 143 142 140 136 135 136 136 137 139 139 139 138 136 131 125 120 113 109 105 100 101 105 106 105 103 98 102 119 124 109 90 76 59 46 46 58 61 45 28 34 34 359 328 331 344 358 15 21 12 355 347 1 12 11 7 6 6 3 355 339
347 358 43 102 72 49 348 340 63 88 90 93 96 104 111 107 105 116 123 127 137 141 140 140 142 141 141 142 139 134 135 138 136 135 137 138 136 134 133 129 125 120 114 110 106 103 102 97 92 90 91 82 76 90 113 118 96 62 27 10 9 16 358 334 337 353 354 338 326 297 303 325 349 10 7 345 316 316 340 353 353 350 348 349 356 0
335 351 2 83 69 66 286 27 88 104 104 81 80 94 102 101 103 113 122 129 136 138 139 141 141 140 140 140 137 135 136 137 135 136 138 137 137 138 138 138 139 135 127 124 123 119 114 115 112 99 90 96 84 58 47 50 49 13 359 1 8 3 311 299 319 327 300 330 330 310 281 290 308 333 350 346 332 322 323 333 340 341 337 332 331 343
320 326 326 92 75 68 71 83 98 104 84 60 69 94 107 107 107 110 115 124 130 131 133 134 134 132 131 133 136 138 139 140 141 141 141 141 142 143 141 141 143 140 134 134 129 85 60 92 147 152 117 140 161 6 5 2 339 328 335 339 343 343 333 312 296 286 276 292 310 313 294 276 281 295 307 313 322 329 328 328 332 332 331 328 322 318
338 322 6 78 94 84 13 36 75 99 88 79 84 94 104 109 110 108 110 114 119 123 127 128 128 128 129 133 138 140 141 144 144 141 138 136 131 125 122 120 119 118 117 116 102 60 41 45 87 96 61 106 194 215 300 309 307 303 308 315 314 322 334 333 318 305 299 292 292 301 308 296 285 283 285 290 297 306 313 321 323 321 321 322 317 309
346 289 39 103 118 86 65 68 78 92 102 107 109 108 107 107 106 104 105 108 112 118 121 123 126 129 132 136 141 143 143 143 142 137 131 122 116 114 115 113 109 104 101 100 94 61 35 35 56 41 15 348 251 275 305 314 310 280 260 280 295 304 324 335 334 333 334 320 301 295 304 316 307 289 278 281 291 293 294 301 306 305 306 309 311 308